NOAA NWS Hourly Roundups by Site

Regional Weather Roundup for Bismarck, ND

To Select Another Site Choose from List

Select Site:  

000
ASUS43 KBIS 152110
RWRBIS

NWR BROADCAST TEXT
NATIONAL WEATHER SERVICE BISMARCK ND
400 PM CDT MON AUG 15 2022

NOTE: "FAIR" INDICATES FEW OR NO CLOUDS BELOW 12,000 FEET WITH NO
SIGNIFICANT WEATHER AND/OR OBSTRUCTIONS TO VISIBILITY.


CITY           SKY/WX    TMP DP  RH WIND       PRES   REMARKS
WILLISTON      SUNNY     88  52  29 N10G17    30.02F
MINOT          MOSUNNY   85  68  56 N8        29.95S
MINOT AFB      MOSUNNY   82  66  57 N8        29.94S
BISMARCK       PTSUNNY   86  67  52 S18G25    29.98R
DICKINSON      SUNNY     90  60  36 VRB5      30.01S
GARRISON         N/A     92  51  24 W10       29.95S
HETTINGER ARPT MOSUNNY   90  51  26 NE8       30.04F
JAMESTOWN      CLOUDY    81  69  67 E9        30.00S
CARRINGTON     FAIR      79  68  69 SE12      30.00R
HAZEN            N/A     86  72  62 CALM      29.98S HX  92
MANDAN         PTSUNNY   82  72  69 S15       29.99S
OAKES          FAIR      84  70  61 S12G21    30.03S
STANLEY        FAIR      84  68  58 NW13G18   30.00S
TIOGA          FAIR      82  64  54 N10G16    30.03S
WATFORD CITY   FAIR      88  57  35 W10       30.00S
$$

CITY           SKY/WX    TMP DP  RH WIND       PRES   REMARKS
GRAND FORKS    CLOUDY    79  66  64 SE20      29.94F
GRAND FORKS AF PTSUNNY   79  66  64 E14       29.94F
DEVILS LAKE    MOSUNNY   75  66  73 S13       29.97F
FARGO          MOSUNNY   81  66  60 SE9       30.00F
CANDO          FAIR      79  79 100 S10       29.98R
CAVALIER       FAIR      77  73  88 S13       29.96S
GRAFTON        FAIR      81  68  65 SE16G22   29.97F
GWINNER        SUNNY     84  70  61 SW10      30.02F
LANGDON        FAIR      77  77 100 E14       29.99R
ROLLA          FAIR      79  79 100 SW10      29.98S
WALHALLA       PTSUNNY   73  73 100 SE13      29.97R
$$

CITY           SKY/WX    TMP DP  RH WIND       PRES   REMARKS
ABERDEEN       PTSUNNY   79  68  69 SE9       30.04S
MOBRIDGE       CLOUDY    80  65  59 W7        30.02R
BUFFALO          N/A     91  49  23 E10       30.01F
RAPID CITY     PTSUNNY   83  60  45 NE13      30.07S
GLASGOW        SUNNY     94  42  16 NE10G17   30.01F HX  90
SIDNEY         SUNNY     90  57  32 N14       30.00S
WOLF POINT     SUNNY     93  40  15 NE9G20    30.01S
GLENDIVE       SUNNY     91  49  23 NE9       30.02F
MILES CITY     SUNNY     92  50  23 E9        30.00F
BAKER          MOSUNNY   91  49  23 E5        30.04S
$$

CITY           SKY/WX    TMP DP  RH WIND       PRES   REMARKS
BILLINGS       MOSUNNY   90  51  26 E12       30.06F
GREAT FALLS    SUNNY     90  31  12 W7        30.05F
REGINA         MOSUNNY   81  61  50 N10       30.02S
ESTEVAN        MOSUNNY   81  68  65 NW10G17   30.00S
$$



 

View Past Reports for Bismarck, ND.

Products Courtesy of NOAA-NWS
NWS Information Parsing Script by Ken True at Saratoga Weather - Script by SE Lincoln Weather.